Regional Weather Roundup
Issued by NWS

Home | Current Version | Previous Version | Text Only | Print | Product List | Glossary Off
Versions: 1 2 3 4 5 6 7 8 9 10 11 12 13 14 15 16 17 18 19 20 21 22 23 24 25 26 27 28 29 30 31 32 33 34 35 36 37 38 39 40 41 42 43 44 45 46 47 48 49 50

060
ASUS45 KABQ 261901
RWRNM
NEW MEXICO REGIONAL WEATHER ROUNDUP
NATIONAL WEATHER SERVICE ALBUQUERQUE NM
100 PM MDT TUE JUL 26 2016

NOTE: "FAIR" MEANS FEW OR NO CLOUDS BELOW 12,000 FEET AGL WITH NO
       SIGNIFICANT WEATHER OR OBSTRUCTIONS TO VISION.

      THIS PRODUCT IS RELEASED AS TWO VERSIONS.  ONE VERSION NEAR
      THE TOP OF THE HOUR CONTAINING PRELIMINARY DATA FROM ALBUQUERQUE
      AND OTHER STATIONS.  A FINAL VERSION WITH ADDITIONAL DATA IS
      ISSUED ABOUT 10 MINUTES AFTER THE HOUR.

NMZ501-503-504-510>518-262000-
NORTHWEST PLATEAU/NORTHCENTRAL MOUNTAINS

CITY           SKY/WX    TMP DP  RH WIND       PRES   REMARKS
FARMINGTON     FAIR      85  48  27 VRB5      30.21F
LOS ALAMOS     FAIR      79  49  35 NE3       30.33F
SANTA FE       FAIR      83  50  31 VRB5      30.25F
TAOS           FAIR      81  43  26 W3        30.32F
ANGEL FIRE     FAIR      74  44  34 W3        30.41F

$$
NMZ402-403-502-505>509-262000-
WESTCENTRAL MOUNTAINS/SOUTHWEST MOUNTAINS

CITY           SKY/WX    TMP DP  RH WIND       PRES   REMARKS
GALLUP         CLOUDY    79  48  33 W6        30.30F
GRANTS         CLOUDY    78  51  37 W15       30.30F
SILVER CITY    FAIR      86  51  29 SE9       30.20F

$$
NMZ407-409-411-412-262000-
SOUTHERN DESERTS

CITY           SKY/WX    TMP DP  RH WIND       PRES   REMARKS
LORDSBURG      FAIR      90  55  31 SW5       30.11F
DEMING         FAIR      92  53  26 MISG      30.11F
LAS CRUCES     FAIR      91  51  25 CALM      30.14F
HOLLOMAN AFB   FAIR      87  53  31 VRB3      30.11F
ALAMOGORDO     FAIR      86  54  32 NW6       30.14F
T OR C         FAIR      89  55  31 MISG      30.15F

$$
NMZ519>523-262000-
CENTRAL VALLEYS/CENTRAL HIGHLANDS

CITY           SKY/WX    TMP DP  RH WIND       PRES   REMARKS
ALBUQUERQUE    FAIR      85  56  37 VRB6      30.21F
DOUBLE EAGLE   MOSUNNY   84  57  39 SW6       30.25F
MORIARTY ARPT  PTSUNNY   85  47  27 N8        30.26F
CLINES CORNERS FAIR      81  50  33 NW9       30.33F
BELEN          FAIR      85  51  30 NE5       30.19F
SOCORRO        FAIR      89  52  28 NE7       30.16F

$$
NMZ524>526-539-540-262000-
SOUTHCENTRAL MOUNTAINS

CITY           SKY/WX    TMP DP  RH WIND       PRES   REMARKS
RUIDOSO          N/A     77  50  38 NE5       30.33F

$$
NMZ527>531-262000-
NORTHEAST HIGHLANDS/NORTHEAST PLAINS

CITY           SKY/WX    TMP DP  RH WIND       PRES   REMARKS
LAS VEGAS      FAIR      89  39  17 N9        30.28F
RATON          FAIR      78  46  32 S7        30.24F
CLAYTON        FAIR      88  54  31 S10       30.17F

$$
NMZ532>537-262000-
EASTCENTRAL PLAINS

CITY           SKY/WX    TMP DP  RH WIND       PRES   REMARKS
TUCUMCARI      FAIR      88  57  34 S5        30.10F
CANNON AFB     PTSUNNY   87  60  40 VRB7      30.14F
CLOVIS AIRPORT FAIR      86  55  35 NW5       30.14F

$$
NMZ028-029-538-262000-
SOUTHEAST PLAINS

CITY           SKY/WX    TMP DP  RH WIND       PRES   REMARKS
ROSWELL        FAIR      89  59  36 NE7       30.09F
ARTESIA        FAIR      88  61  40 E9        30.10F
CARLSBAD       FAIR      92  60  34 N7        30.06F
HOBBS          PTSUNNY   90  57  33 NE10G16   30.11F


$$




USA.gov is the U.S. government's official web portal to all federal, state and local government web resources and services.